Location: Winthrop
(48.4780°N, 120.1850°W)
Time: 07:26:14
(UTC-08:00)

Tiros 1 despin weight - Visible Passes

Search period start: 27 January 2023 00:00
Search period end: 06 February 2023 00:00
Orbit: 589 x 636 km, 48.2° (Epoch: 27 January)

Date Brightness Start Highest point End Pass type
(mag) Time Alt. Az. Time Alt. Az. Time Alt. Az.
27 Jan ? 18:34:52 10° SSW 18:38:46 29° SSE 18:39:39 27° SE visible
27 Jan ? 20:15:21 10° WSW 20:16:37 18° WSW 20:16:37 18° WSW visible
28 Jan ? 18:49:05 10° SW 18:53:21 43° SSE 18:54:01 40° SE visible
28 Jan ? 20:30:07 10° W 20:30:59 15° W 20:30:59 15° W visible
29 Jan ? 17:23:41 10° SSW 17:27:07 21° SE 17:30:33 10° E visible
29 Jan ? 19:03:34 10° WSW 19:08:02 61° SSE 19:08:20 59° SE visible
29 Jan ? 20:44:55 10° W 20:45:17 12° W 20:45:17 12° W visible
30 Jan ? 17:37:33 10° SSW 17:41:38 33° SSE 17:45:39 10° E visible
30 Jan ? 19:18:15 10° WSW 19:22:36 76° SSW 19:22:36 76° SSW visible
31 Jan ? 17:51:52 10° SW 17:56:15 49° SSE 17:59:52 14° E visible
31 Jan ? 19:33:00 10° W 19:36:49 63° W 19:36:49 63° W visible
01 Feb ? 18:06:24 10° WSW 18:10:55 67° SSE 18:14:05 19° E visible
01 Feb ? 19:47:48 10° W 19:51:01 46° W 19:51:01 46° W visible
02 Feb ? 18:21:06 10° WSW 18:25:39 81° SSE 18:28:16 25° E visible
02 Feb ? 20:02:34 10° W 20:05:13 34° W 20:05:13 34° W visible
03 Feb ? 18:35:51 10° W 18:40:25 88° S 18:42:27 32° E visible
03 Feb ? 20:17:20 10° W 20:19:24 26° W 20:19:24 26° W visible
04 Feb ? 18:50:37 10° W 18:55:11 86° S 18:56:39 42° E visible
04 Feb ? 20:32:08 10° W 20:33:36 19° W 20:33:36 19° W visible
05 Feb ? 19:05:23 10° W 19:09:55 75° SSW 19:10:52 53° SE visible
05 Feb ? 20:47:02 10° W 20:47:49 14° W 20:47:49 14° W visible
